• Join FlightAware (Why Join?)
  • Login
  • US Flag 
03:55AM EDT


 

Airport Tracker/Info


-or-


 

Live Flight TrackerFlight Track Log ✈ KAP5 ✈ 24-Aug-2013 ✈ KBOS - KMVY

Flight Track Log - Related Links

Times and Time Zones

All times are in EDT time to prevent confusion due to time zone crossing. See the KAP5 flight status page for this flight to view local times or setup timezone preferences in your user account.

Time Position Orientation Groundspeed Altitude Reporting Facility
EDT Latitude Longitude Course Direction KTS MPH feet Rate Location/Type
05:14PM 42.3667 -70.9833 114° Southeast 119 137 500  Level KA90
05:16PM 42.3500 -70.9333 114° Southeast 107 123 1,200 600 Climbing KA90
05:17PM 42.3333 -70.9000 124° Southeast 114 131 1,800 600 Climbing KA90
05:18PM 42.3000 -70.8833 160° South 130 150 2,400 600 Climbing KA90
05:19PM 42.2656 -70.8708 165° South 128 147 3,100 600 Climbing Boston Center
05:20PM 42.2300 -70.8600 167° South 133 153 3,700 660 Climbing Boston Center
05:21PM 42.1953 -70.8486 166° South 130 150 4,500 540 Climbing Boston Center
05:22PM 42.1578 -70.8400 170° South 128 147 4,900 240 Climbing Boston Center
05:23PM 42.1161 -70.8272 167° South 149 171 5,000  Climbing Boston Center
05:24PM 42.0672 -70.8147 169° South 169 194 4,900  Descending Boston Center
05:25PM 42.0194 -70.8036 170° South 174 200 5,000  Climbing Boston Center
05:26PM 41.9731 -70.7906 168° South 172 198 5,000  Level Boston Center
05:27PM 41.9278 -70.7719 163° South 172 198 5,000 -60 Level Boston Center
05:28PM 41.8714 -70.7536 166° South 174 200 4,900 -240 Descending Boston Center
05:29PM 41.8219 -70.7397 168° South 181 208 4,600 -300 Descending Boston Center
05:30PM 41.7717 -70.7253 168° South 186 214 4,300 -420 Descending Boston Center
05:31PM 41.7183 -70.7108 169° South 194 223 3,800 -480 Descending Boston Center
05:32PM 41.6653 -70.6981 170° South 196 226 3,400 -420 Descending Boston Center
05:33PM 41.6133 -70.6839 168° South 192 221 3,000 -420 Descending Boston Center
05:34PM 41.5619 -70.6711 169° South 190 219 2,600 -480 Descending Boston Center
05:35PM 41.5017 -70.6514 166° South 189 217 2,100 -480 Descending Boston Center
05:36PM 41.4547 -70.6322 163° South 180 207 1,700 -360 Descending Boston Center
05:37PM 41.4128 -70.6381 186° South 158 182 1,400 -360 Descending Boston Center
05:38PM 41.3747 -70.6667 209° Southwest 148 170 1,000 -540 Descending Boston Center
05:39PM 41.3761 -70.6331 87° East 118 136 400 -600 Descending Boston Center
05:41PM 41.3833 -70.6000 163° South  Level FlightAware Approximate